| time (UTC) | temp C | wind direction | speed KPH | gust KPH | rain 1hr cm | rain 24hr cm | rain mn cm | humidity % | barometer mb |
| 20260504184511 | 21 | 237 | 9.7 | 24.1 | 0.00 | 0.00 | 0.00 | 57 | 1009.1 |
| 20260504183013 | 22 | 330 | 11.3 | 24.1 | 0.00 | 0.00 | 0.00 | 56 | 1009.0 |
| 20260504181511 | 22 | 249 | 6.4 | 16.1 | 0.00 | 0.00 | 0.00 | 59 | 1009.1 |
| 20260504180008 | 21 | 213 | 11.3 | 19.3 | 0.00 | 0.00 | 0.00 | 56 | 1009.2 |
| 20260504174511 | 21 | 237 | 11.3 | 25.7 | 0.00 | 0.00 | 0.00 | 58 | 1009.3 |
| 20260504173022 | 21 | 255 | 6.4 | 16.1 | 0.00 | 0.00 | 0.00 | 59 | 1009.4 |
| 20260504171518 | 20 | 236 | 11.3 | 22.5 | 0.00 | 0.00 | 0.00 | 60 | 1009.6 |
| 20260504081513 | 9 | 225 | 0.0 | 3.2 | 0.00 | 0.00 | 0.00 | 73 | 1012.3 |
| 20260504050010 | 10 | 128 | 0.0 | 3.2 | 0.00 | 0.00 | 0.00 | 72 | 1014.2 |
| 20260504044532 | 10 | 128 | 0.0 | 1.6 | 0.00 | 0.00 | 0.00 | 71 | 1014.3 |
| 20260504043018 | 10 | 122 | 0.0 | 0.0 | 0.00 | 0.00 | 0.00 | 70 | 1014.3 |
| 20260504041514 | 10 | 122 | 0.0 | 1.6 | 0.00 | 0.00 | 0.00 | 69 | 1014.6 |
| 20260504040011 | 10 | 122 | 0.0 | 3.2 | 0.00 | 0.00 | 0.00 | 70 | 1014.6 |
| 20260504034512 | 10 | 122 | 0.0 | 0.0 | 0.00 | 0.00 | 0.00 | 70 | 1014.9 |
| 20260504033011 | 10 | 122 | 0.0 | 4.8 | 0.00 | 0.00 | 0.00 | 70 | 1015.0 |
| 20260504031511 | 10 | 123 | 0.0 | 4.8 | 0.00 | 0.00 | 0.00 | 69 | 1015.0 |
| 20260504030007 | 10 | 123 | 0.0 | 3.2 | 0.00 | 0.00 | 0.00 | 69 | 1015.1 |
| 20260504024516 | 10 | 124 | 1.6 | 4.8 | 0.00 | 0.00 | 0.00 | 71 | 1015.2 |
| 20260504023007 | 10 | 140 | 0.0 | 3.2 | 0.00 | 0.00 | 0.00 | 75 | 1015.2 |
| 20260504021511 | 10 | 136 | 0.0 | 3.2 | 0.00 | 0.00 | 0.00 | 76 | 1015.3 |
| 20260504020013 | 10 | 161 | 0.0 | 3.2 | 0.00 | 0.00 | 0.00 | 75 | 1015.3 |
| 20260504014511 | 10 | 161 | 0.0 | 1.6 | 0.00 | 0.00 | 0.00 | 75 | 1015.4 |
| 20260504013011 | 10 | 161 | 0.0 | 1.6 | 0.00 | 0.00 | 0.00 | 74 | 1015.3 |
| 20260504011509 | 10 | 161 | 0.0 | 1.6 | 0.00 | 0.00 | 0.00 | 75 | 1015.4 |
| 20260504010011 | 10 | 161 | 0.0 | 0.0 | 0.00 | 0.00 | 0.00 | 74 | 1015.6 |
| 20260504004515 | 10 | 161 | 0.0 | 4.8 | 0.00 | 0.00 | 0.00 | 73 | 1015.8 |
| 20260504003008 | 10 | 164 | 0.0 | 1.6 | 0.00 | 0.00 | 0.00 | 76 | 1015.5 |
| 20260504001511 | 10 | 164 | 0.0 | 3.2 | 0.00 | 0.00 | 0.00 | 76 | 1015.3 |
| 20260504000009 | 10 | 164 | 0.0 | 3.2 | 0.00 | 0.00 | 0.00 | 76 | 1015.3 |
| 20260503234509 | 10 | 164 | 0.0 | 3.2 | 0.00 | 0.00 | 0.00 | 76 | 1015.6 |
| 20260503233009 | 10 | 219 | 0.0 | 1.6 | 0.00 | 0.00 | 0.00 | 72 | 1015.7 |
| 20260503231508 | 10 | 219 | 0.0 | 4.8 | 0.00 | 0.00 | 0.00 | 71 | 1016.4 |
| 20260503230011 | 11 | 219 | 1.6 | 17.7 | 0.00 | 0.00 | 0.00 | 67 | 1016.7 |
| 20260503224509 | 12 | 211 | 9.7 | 24.1 | 0.00 | 0.00 | 0.00 | 62 | 1017.2 |
| 20260503223006 | 12 | 284 | 12.9 | 25.7 | 0.00 | 0.00 | 0.00 | 56 | 1017.0 |
| 20260503221509 | 13 | 221 | 11.3 | 32.2 | 0.00 | 0.00 | 0.00 | 54 | 1016.7 |
| 20260503220009 | 14 | 248 | 12.9 | 24.1 | 0.00 | 0.00 | 0.00 | 48 | 1016.5 |
| 20260503214514 | 15 | 218 | 6.4 | 16.1 | 0.00 | 0.00 | 0.00 | 47 | 1016.3 |
| 20260503213026 | 15 | 272 | 11.3 | 22.5 | 0.00 | 0.00 | 0.00 | 45 | 1016.4 |
| 20260503211517 | 15 | 274 | 9.7 | 22.5 | 0.00 | 0.00 | 0.00 | 44 | 1016.6 |
| 20260503210013 | 15 | 255 | 14.5 | 27.4 | 0.00 | 0.00 | 0.00 | 44 | 1016.7 |
| 20260503204511 | 15 | 242 | 6.4 | 17.7 | 0.00 | 0.00 | 0.00 | 41 | 1016.7 |
| 20260503203009 | 16 | 245 | 8.0 | 22.5 | 0.00 | 0.00 | 0.00 | 41 | 1016.7 |
| 20260503201525 | 16 | 239 | 11.3 | 25.7 | 0.00 | 0.00 | 0.00 | 41 | 1016.9 |
| 20260503200011 | 16 | 257 | 11.3 | 24.1 | 0.00 | 0.00 | 0.00 | 43 | 1016.9 |
| 20260503194513 | 16 | 188 | 9.7 | 27.4 | 0.00 | 0.00 | 0.00 | 40 | 1017.2 |
| 20260503193013 | 16 | 249 | 14.5 | 25.7 | 0.00 | 0.00 | 0.00 | 41 | 1017.5 |
| 20260503191509 | 16 | 286 | 11.3 | 20.9 | 0.00 | 0.00 | 0.00 | 43 | 1017.8 |
| 20260503190020 | 16 | 207 | 8.0 | 24.1 | 0.00 | 0.00 | 0.00 | 42 | 1018.1 |